Weather History for KMTC - October, 2012

Change the Weather History Date:

Friday, October 26, 2012

  Actual Average Record
Temperature  
Mean Temperature 53 °F -  
Max Temperature 60 °F 55 °F 79 °F (1963)
Min Temperature 44 °F 39 °F 24 °F (1962)
Degree Days  
Heating Degree Days 12    
Growing Degree Days 3 (Base 50)    
Moisture  
Dew Point 42 °F    
Average Humidity 76    
Maximum Humidity 87    
Minimum Humidity 62    
Precipitation  
Precipitation 0.14 in - - ()
Sea Level Pressure  
Sea Level Pressure 30.14 in    
Wind  
Wind Speed 13 mph (NNW)    
Max Wind Speed 17 mph    
Max Gust Speed 26 mph    
Visibility 10 miles    
Events Rain    
Averages and records for this station are not official NWS values.
T = Trace of Precipitation, MM = Missing Value Source: NWS Daily Summary

Daily Weather History Graph

Daily Weather History Graph

Search for Another Location

Airport or City:

Trip Planner

Search our weather history database for the weather conditions in past years. The results will help you decide how hot, cold, wet, or windy it might be!

Date:

Astronomy

Oct. 26, 2012 Rise Set
Actual Time 7:58 AM EDT 6:31 PM EDT
Civil Twilight 7:29 AM EDT 7:00 PM EDT
Nautical Twilight 6:56 AM EDT 7:33 PM EDT
Astronomical Twilight 6:23 AM EDT 8:06 PM EDT
Moon 4:49 PM EDT (10/26) 4:50 AM EDT (10/26)
Length of Visible Light 11h 31m
Length of Day
10h 33m
Waxing Gibbous, 91% of the Moon is Illuminated
Oct 26
Waxing Gibbous
Oct 29
Full
Nov 6
Last Quarter
Nov 13
New
Nov 20
First Quarter

Hourly Weather History & Observations

Time (EDT) Temp. Windchill Dew Point Humidity Pressure Visibility Wind Dir Wind Speed Gust Speed Precip Events Conditions
4:28 AM 60.8 °F - 53.6 °F 77% 29.92 in 10.0 mi WNW 17.3 mph 26.5 mph N/A   Scattered Clouds
4:55 AM 59.0 °F - 53.6 °F 82% 29.96 in 10.0 mi WNW 15.0 mph 19.6 mph N/A   Mostly Cloudy
5:21 AM 57.2 °F - 50.0 °F 77% 29.97 in 10.0 mi WNW 15.0 mph 25.3 mph N/A   Overcast
5:55 AM 53.6 °F - 46.4 °F 77% 30.01 in 10.0 mi NW 11.5 mph 19.6 mph N/A   Overcast
6:55 AM 51.8 °F - 44.6 °F 76% 30.02 in 10.0 mi NW 12.7 mph 19.6 mph N/A   Overcast
7:55 AM 50.0 °F - 44.6 °F 82% 30.08 in 10.0 mi NW 11.5 mph - N/A   Overcast
8:00 AM 50.0 °F - 44.6 °F 82% 30.06 in 10.0 mi NNW 9.2 mph - N/A Rain Light Rain Showers
8:27 AM 48.2 °F - 44.6 °F 87% 30.09 in 10.0 mi NW 9.2 mph - N/A   Light Drizzle
8:48 AM 48.2 °F - 44.6 °F 87% 30.10 in 10.0 mi NW 16.1 mph 26.5 mph N/A   Overcast
8:55 AM 48.2 °F - 44.6 °F 87% 30.12 in 10.0 mi NNW 10.4 mph 26.5 mph N/A   Overcast
9:03 AM 48.2 °F - 42.8 °F 82% 30.11 in 10.0 mi NW 11.5 mph - N/A Rain Light Rain
9:55 AM 46.4 °F 41.1 °F 42.8 °F 87% 30.16 in 10.0 mi NNW 11.5 mph 18.4 mph N/A Rain Light Rain
10:55 AM 48.2 °F - 42.8 °F 82% 30.19 in 10.0 mi NNW 10.4 mph 17.3 mph N/A   Light Drizzle
11:11 AM 48.2 °F - 42.8 °F 82% 30.16 in 10.0 mi North 10.4 mph - N/A   Overcast
11:25 AM 46.4 °F 40.4 °F 42.8 °F 87% 30.16 in 10.0 mi NNW 13.8 mph - N/A Rain Light Rain
11:42 AM 48.2 °F - 42.8 °F 82% 30.17 in 10.0 mi NNW 10.4 mph - N/A Rain Light Rain
11:55 AM 48.2 °F - 42.8 °F 82% 30.21 in 10.0 mi NNW 12.7 mph - N/A Rain Light Rain
12:22 PM 48.2 °F - 42.8 °F 82% 30.18 in 10.0 mi NNW 9.2 mph - N/A   Overcast
12:55 PM 48.2 °F - 41.0 °F 76% 30.20 in 10.0 mi NNW 11.5 mph - N/A   Overcast
1:55 PM 50.0 °F - 41.0 °F 71% 30.20 in 10.0 mi NNW 13.8 mph 18.4 mph N/A   Mostly Cloudy
2:55 PM 50.0 °F - 39.2 °F 66% 30.21 in 10.0 mi NNW 13.8 mph - N/A   Overcast
3:55 PM 48.2 °F - 37.4 °F 66% 30.20 in 10.0 mi North 13.8 mph - N/A   Overcast
4:36 PM 48.2 °F - 37.4 °F 66% 30.19 in 10.0 mi North 8.1 mph - N/A   Mostly Cloudy
4:55 PM 48.2 °F - 37.4 °F 66% 30.22 in 10.0 mi NNE 9.2 mph - N/A   Mostly Cloudy
5:55 PM 48.2 °F - 37.4 °F 66% 30.21 in 10.0 mi NNE 6.9 mph - N/A   Overcast
6:55 PM 48.2 °F - 37.4 °F 66% 30.22 in 10.0 mi NNE 8.1 mph - N/A   Overcast
7:55 PM 48.2 °F - 35.6 °F 62% 30.24 in 10.0 mi NNE 11.5 mph - N/A   Overcast
8:55 PM 46.4 °F 41.9 °F 37.4 °F 71% 30.26 in 10.0 mi North 9.2 mph - N/A   Mostly Cloudy
9:55 PM 46.4 °F 42.4 °F 35.6 °F 66% 30.25 in 10.0 mi North 8.1 mph - N/A   Overcast
10:55 PM 44.6 °F 40.2 °F 35.6 °F 71% 30.23 in 10.0 mi North 8.1 mph - N/A   Overcast